(503657) = 2013 RF82 = 2016 GO219

Discovered at Siding Spring on 2004-08-18 by Siding Spring Survey.

Orbit

Orbit type: Main Belt

Note: WebGL enabled browser required.

epoch2024-03-31.0
epoch JD2460400.5
perihelion date2021-07-31.87166
perihelion JD2459427.37166
argument of perihelion (°)286.27003
ascending node (°)26.78456
inclination (°)22.13976
eccentricity0.1045951
perihelion distance (AU)2.3804055
Tisserand w.r.t. Jupiter3.3
ΔV w.r.t. Earth (km/sec)11.9
semimajor axis (AU)2.6584683
mean anomaly (°)221.27214
mean daily motion (°/day)0.22738230
aphelion distance (AU)2.937
period (years)4.33
P-vector [x]0.65079889
P-vector [y]-0.46853016
P-vector [z]-0.59744480
Q-vector [x]0.74001249
Q-vector [y]0.56744188
Q-vector [z]0.36109725
absolute magnitude16.24
phase slope0.15
uncertainty0
referenceMPEC 2024-E179
observations used219
oppositions13
arc length (days)8029
first opposition used2002
last opposition used2024
residual rms (arc-secs)0.77
perturbers coarse indicatorM-v
perturbers precise indicator003Ek
first observation date used2002-03-20.0
last observation date used2024-03-13.0
computer nameMPCLINUX
JD of orbit computation2458026.120466
perihelion JD uncertainty (days)1.2826E-04
argument of perihelion uncertainty (°)3.1124E-05
ascending node uncertainty (°)1.1538E-05
inclination uncertainty (°)6.3035E-06
eccentricity uncertainty 4.4779E-08
perihelion distance uncertainty (AU)1.2585E-07
Minimum Orbit Intersection Distances (in AU)
for orbit epoch: 2460400.5, reference: E2024-G77
Mercury1.9655
Venus1.69797
Earth1.46232
Mars1.08025
Jupiter2.38743
Saturn6.45829
Uranus15.6516
Neptune27.2195

Observations

228 total observations over interval: 2002 03 20.13694 – 2024 03 13.300765
These data are available for download (format description).

Date (UT) J2000 RA J2000 Dec Magn Location Ref
2002 03 20.13694 09 20 22.71 +43 08 30.0 21.0 R 644 – Palomar Mountain/NEAT MPS 703800
2002 03 20.14860 09 20 22.20 +43 08 24.9 21.0 R 644 – Palomar Mountain/NEAT MPS 703800
2002 03 20.16027 09 20 21.78 +43 08 18.9 20.9 R 644 – Palomar Mountain/NEAT MPS 703800
2004 08 18.63176 01 17 41.79 -11 13 09.2 20.0 R E12 – Siding Spring Survey MPS 815725
2004 08 18.64865 01 17 41.40 -11 13 08.4 19.8 R E12 – Siding Spring Survey MPS 815725
2004 08 18.66552 01 17 41.12 -11 13 09.1 19.8 R E12 – Siding Spring Survey MPS 815725
2004 08 18.68236 01 17 40.84 -11 13 07.8 19.3 R E12 – Siding Spring Survey MPS 815725
2004 08 27.40783 01 14 00.82 -11 11 55.4 19.3 R 699 – Lowell Observatory-LONEOS MPS 815725
2004 08 27.42078 01 14 00.26 -11 11 56.2   699 – Lowell Observatory-LONEOS MPS 815725
2004 08 27.43373 01 13 59.96 -11 11 55.9   699 – Lowell Observatory-LONEOS MPS 815725
2004 08 27.44668 01 13 59.43 -11 11 55.7   699 – Lowell Observatory-LONEOS MPS 815725
2004 10 20.18152 00 18 40.71 -09 10 09.8 18.7 R 703 – Catalina Sky Survey MPS 815726
2004 10 20.19499 00 18 39.94 -09 10 05.2 19.2 R 703 – Catalina Sky Survey MPS 815726
2004 10 20.20847 00 18 39.10 -09 09 58.9 19.6 R 703 – Catalina Sky Survey MPS 815726
2004 10 20.22198 00 18 38.29 -09 09 53.7 19.1 R 703 – Catalina Sky Survey MPS 815726
2007 04 26.14879 12 40 48.10 +01 28 13.2 20.7 V G96 – Mt. Lemmon Survey MPS 815726
2007 04 26.15346 12 40 47.82 +01 28 13.0 19.6 V G96 – Mt. Lemmon Survey MPS 815726
2007 04 26.15816 12 40 47.56 +01 28 10.9 20.7 V G96 – Mt. Lemmon Survey MPS 815726
2007 04 26.16287 12 40 47.28 +01 28 09.9 20.4 V G96 – Mt. Lemmon Survey MPS 815726
2007 05 16.19999 12 26 26.05 +00 07 57.4 21.2 V G96 – Mt. Lemmon Survey MPS 815726
2007 05 16.20665 12 26 25.76 +00 07 54.9 20.3 V G96 – Mt. Lemmon Survey MPS 815726
2007 05 16.21337 12 26 25.58 +00 07 52.7 20.5 V G96 – Mt. Lemmon Survey MPS 815726
2007 05 16.21999 12 26 25.40 +00 07 50.7 20.9 V G96 – Mt. Lemmon Survey MPS 815726
2008 09 08.48955 21 49 11.42 -45 52 27.4 20.2 V E12 – Siding Spring Survey MPS 815726
2008 09 08.49979 21 49 10.77 -45 52 20.9 20.0 V E12 – Siding Spring Survey MPS 815726
2008 09 08.51252 21 49 09.98 -45 52 15.2 19.8 V E12 – Siding Spring Survey MPS 815726
2008 09 08.52277 21 49 09.26 -45 52 08.8 20.5 V E12 – Siding Spring Survey MPS 815726
2013 09 12.39216 03 07 20.07 +19 11 39.0 20.1 V G96 – Mt. Lemmon Survey MPS 477873
2013 09 12.40126 03 07 20.01 +19 11 43.4 20.3 V G96 – Mt. Lemmon Survey MPS 477873
2013 09 12.41034 03 07 19.93 +19 11 47.3 20.1 V G96 – Mt. Lemmon Survey MPS 477873
2013 09 12.41939 03 07 19.85 +19 11 51.7 20.4 V G96 – Mt. Lemmon Survey MPS 477873
2013 09 17.35596 03 06 26.29 +19 49 35.2 20.1 V G96 – Mt. Lemmon Survey MPS 477873
2013 09 17.37418 03 06 25.99 +19 49 43.5 20.2 V G96 – Mt. Lemmon Survey MPS 477873
2013 09 17.38338 03 06 25.84 +19 49 48.3 19.8 V G96 – Mt. Lemmon Survey MPS 477873
2013 11 04.96716 02 22 10.46 +24 06 41.7 20.3   J43 – Oukaimeden Observatory, Marrakech MPS 815726
2013 11 04.97741 02 22 09.66 +24 06 43.0 20.1   J43 – Oukaimeden Observatory, Marrakech MPS 815726
2013 11 04.98762 02 22 08.87 +24 06 44.2 20.5   J43 – Oukaimeden Observatory, Marrakech MPS 815726
2013 11 04.99786 02 22 08.05 +24 06 45.8 19.9   J43 – Oukaimeden Observatory, Marrakech MPS 815726
2013 11 11.36323 02 14 17.96 +24 18 05.5 20.2 V 703 – Catalina Sky Survey MPS 2152000
2013 11 11.36829 02 14 17.42 +24 18 06.6 19.9 V 703 – Catalina Sky Survey MPS 870060
2013 11 11.37334 02 14 17.04 +24 18 07.2 20.0 V 703 – Catalina Sky Survey MPS 870060
2013 11 11.37839 02 14 16.69 +24 18 06.4 20.3 V 703 – Catalina Sky Survey MPS 870060
2015 01 14.52575 10 24 33.639 +43 01 03.49 20.3 i F51 – Pan-STARRS 1, Haleakala MPS 815726
2015 01 14.53821 10 24 33.081 +43 01 09.57 20.4 i F51 – Pan-STARRS 1, Haleakala MPS 815726
2015 01 14.55069 10 24 32.539 +43 01 15.46 20.2 i F51 – Pan-STARRS 1, Haleakala MPS 815726
2015 01 14.56324 10 24 31.990 +43 01 21.11 20.2 i F51 – Pan-STARRS 1, Haleakala MPS 815726
2015 03 20.29592 09 17 01.575 +43 22 26.28 20.9 w F51 – Pan-STARRS 1, Haleakala MPS 815726
2015 03 20.30804 09 17 01.157 +43 22 20.50 20.8 w F51 – Pan-STARRS 1, Haleakala MPS 815726
2015 03 20.32020 09 17 00.723 +43 22 14.77 20.7 w F51 – Pan-STARRS 1, Haleakala MPS 815726
2015 03 20.33238 09 17 00.316 +43 22 08.84 20.7 w F51 – Pan-STARRS 1, Haleakala MPS 815726
2015 03 22.30250 09 15 59.376 +43 05 51.67 20.8 w F51 – Pan-STARRS 1, Haleakala MPS 815726
2015 03 22.31468 09 15 58.997 +43 05 45.46 20.8 w F51 – Pan-STARRS 1, Haleakala MPS 815726
2015 03 22.32689 09 15 58.607 +43 05 39.42 20.7 w F51 – Pan-STARRS 1, Haleakala MPS 815726
2015 03 22.33909 09 15 58.242 +43 05 33.23 20.9 w F51 – Pan-STARRS 1, Haleakala MPS 815726
2015 04 21.15219 09 15 14.35 +38 06 14.6 20.9 V G96 – Mt. Lemmon Survey MPS 815726
2015 04 21.15728 09 15 14.45 +38 06 11.8 21.0 V G96 – Mt. Lemmon Survey MPS 815726
2015 04 21.16236 09 15 14.48 +38 06 09.0 21.6 V G96 – Mt. Lemmon Survey MPS 815726
2015 04 21.16745 09 15 14.66 +38 06 04.8 21.6 V G96 – Mt. Lemmon Survey MPS 815726
2016 03 07.59706 15 15 22.287 -21 05 41.15 21.0 w F51 – Pan-STARRS 1, Haleakala MPS 701481
2016 03 07.60804 15 15 22.347 -21 05 46.77 21.1 w F51 – Pan-STARRS 1, Haleakala MPS 701481
2016 03 07.61903 15 15 22.420 -21 05 52.14 21.0 w F51 – Pan-STARRS 1, Haleakala MPS 701481
2016 03 17.56394 15 15 14.178 -22 26 10.49 20.7 w F51 – Pan-STARRS 1, Haleakala MPS 701481
2016 03 17.57519 15 15 14.049 -22 26 15.80 20.8 w F51 – Pan-STARRS 1, Haleakala MPS 701481
2016 03 17.58641 15 15 13.924 -22 26 21.20 20.8 w F51 – Pan-STARRS 1, Haleakala MPS 701481
2016 03 17.59761 15 15 13.792 -22 26 26.45 20.8 w F51 – Pan-STARRS 1, Haleakala MPS 701481
2016 04 11.45405 15 01 46.955 -25 29 23.07 20.1 w F51 – Pan-STARRS 1, Haleakala MPS 701481
2016 04 11.46502 15 01 46.332 -25 29 27.57 20.4 w F51 – Pan-STARRS 1, Haleakala MPS 701481
2016 04 11.47597 15 01 45.713 -25 29 31.72 20.2 w F51 – Pan-STARRS 1, Haleakala MPS 701481
2016 04 11.48695 15 01 45.094 -25 29 35.87 20.2 w F51 – Pan-STARRS 1, Haleakala MPS 701481
2016 04 12.49712 15 00 48.899 -25 36 01.92 20.1 w F51 – Pan-STARRS 1, Haleakala MPS 701481
2016 04 12.50747 15 00 48.288 -25 36 05.82 20.2 w F51 – Pan-STARRS 1, Haleakala MPS 701481
2016 04 12.51780 15 00 47.678 -25 36 09.70 20.1 w F51 – Pan-STARRS 1, Haleakala MPS 701481
2016 04 12.52813 15 00 47.080 -25 36 13.65 20.1 w F51 – Pan-STARRS 1, Haleakala MPS 701481
2016 05 15.36130 14 21 55.341 -27 49 50.39 19.6 i F51 – Pan-STARRS 1, Haleakala MPS 710014
2016 05 15.39113 14 21 53.119 -27 49 53.50 19.7 i F51 – Pan-STARRS 1, Haleakala MPS 710014
2017 08 24.56488 01 10 37.856 -12 24 57.59 19.8 w F51 – Pan-STARRS 1, Haleakala MPS 812123
2017 08 24.57783 01 10 37.441 -12 24 57.71 19.8 w F51 – Pan-STARRS 1, Haleakala MPS 812123
2017 08 24.59081 01 10 37.028 -12 24 57.89 19.8 w F51 – Pan-STARRS 1, Haleakala MPS 812123
2017 09 29.24297 00 36 47.83 -11 59 44.4 19.6 V 703 – Catalina Sky Survey MPS 819262
2017 09 29.24922 00 36 47.45 -11 59 42.3 21.5 V 703 – Catalina Sky Survey MPS 819262
2017 09 29.26160 00 36 46.50 -11 59 40.4 19.9 V 703 – Catalina Sky Survey MPS 819262
2017 10 08.36203 00 25 55.273 -11 26 25.70 19.5 i F51 – Pan-STARRS 1, Haleakala MPS 826224
2017 10 08.37364 00 25 54.444 -11 26 23.07 19.2 i F51 – Pan-STARRS 1, Haleakala MPS 826224
2017 10 08.39703 00 25 52.771 -11 26 16.59 19.3 i F51 – Pan-STARRS 1, Haleakala MPS 826224
2017 10 11.23114 00 22 39.40 -11 12 51.4 19.2 G 703 – Catalina Sky Survey MPS 826224
2017 10 11.23602 00 22 39.00 -11 12 51.0 20.5 G 703 – Catalina Sky Survey MPS 826224
2017 10 11.24091 00 22 38.63 -11 12 48.3 19.5 G 703 – Catalina Sky Survey MPS 826224
2017 10 11.24580 00 22 38.33 -11 12 47.6 19.1 G 703 – Catalina Sky Survey MPS 826224
2017 10 26.20762 00 08 09.27 -09 38 56.1   G96 – Mt. Lemmon Survey MPS 831741
2017 10 26.21294 00 08 08.99 -09 38 54.2   G96 – Mt. Lemmon Survey MPS 831741
2017 10 26.21824 00 08 08.75 -09 38 52.4 20.3 G G96 – Mt. Lemmon Survey MPS 831741
2017 10 26.22357 00 08 08.51 -09 38 50.0 20.0 G G96 – Mt. Lemmon Survey MPS 831741
2017 10 27.05751 00 07 29.89 -09 32 32.9 19.8 V W34 – Squirrel Valley Observatory, Columbus MPS 831741
